TIANMU-1 10

Last updated on Tue Sep 22 2026 00:02:54 GMT+0000 (Coordinated Universal Time)

1 57402U 23101D 26264.66097317 .00004013 00000+0 13735-3 0 9993 2 57402 97.2532 313.4015 0005673 137.2344 222.9340 15.30791789176398
UTC large
Height (km)
Speed (km/s)
/
Latitude / Longitude
Inclination (degrees)
Orbital Period (minutes)
Azimuth
Elevation
Range (km)
Doppler Factor

Next 0 passes for location: London (51.5072 / 0.1276)

No passes found over London.
TIANMU-1 10